Flag Weather past 2 weeks in Wake Island, Wake Island, U.S.A.

Now
84 °F

Sunny.


Feels Like: 91 °F
Forecast: 80 / 86 °F
Wind: 10 mph from Southeast

Location: Wake Island Airfld

Current Time: Nov 24, 2014 at 10:44:43 AM

Latest Report: Nov 24, 2014 at 9:58 AM


Visibility: N/A

Pressure: 30.04 "Hg

Humidity: 71%

Dew point: 74 °F

Location of Wake IslandLocation

Historic Weather in Wake Island — Graph

°F

Wake Island temperature yesterday

Maximum temperature yesterday: 87 °F (at 1:58 PM)
Minimum temperature yesterday: 79 °F (at 2:00 AM)
Average temperature yesterday: 82 °F

Past Weeks' High & Low Weather Summary

 TemperatureHumidityPressure
High88 °F (Nov 9, 12:58 PM)94% (Nov 9, 4:59 PM)30.06 "Hg (Nov 9, 4:59 PM)
Low77 °F (Nov 17, 8:58 AM)58% (Nov 17, 3:58 PM)29.89 "Hg (Nov 11, 4:03 PM)
Average82 °F78%29.98 "Hg
* Reported Nov 9 8:58 AM — Nov 24 8:58 AM, Wake Island, Weather by CustomWeather, © 2014

Note: Actual official high and low records may vary slightly from our data, if they occured in-between our weather recording intervals... More about our weather records

Advertising

Wake Island weather history for previous 24 hours

 ConditionsComfort  
Time TempWeatherWind HumidityBarometerVisibility
8:58 AM
Nov 24
83 °FScattered clouds.10 mph73%30.03 "HgN/A
7:58 AM82 °FClear.12 mph75%30.01 "Hg6 mi
6:58 AM81 °FPassing clouds.9 mph76%29.99 "HgN/A
5:58 AM81 °FClear.13 mph71%29.98 "HgN/A
4:58 AM81 °FPassing clouds.13 mph77%29.98 "HgN/A
3:58 AM81 °FPassing clouds.13 mph79%29.97 "HgN/A
2:58 AM81 °FPassing clouds.9 mph77%29.98 "HgN/A
1:58 AM82 °FClear.14 mph72%29.99 "HgN/A
12:58 AM82 °FPassing clouds.15 mph73%30.00 "HgN/A
11:58 PM
Nov 23
81 °FPassing clouds.16 mph74%30.01 "HgN/A
10:58 PM81 °FPassing clouds.16 mph72%30.02 "HgN/A
9:58 PM81 °FPassing clouds.22 mph74%30.02 "HgN/A
8:58 PM82 °FPassing clouds.20 mph75%30.01 "HgN/A
7:58 PM82 °FPassing clouds.21 mph72%30.00 "HgN/A
6:58 PM82 °FHaze.20 mph70%29.98 "Hg6 mi
5:58 PM82 °FHaze.20 mph69%29.97 "Hg5 mi
4:58 PM84 °FSunny.21 mph66%29.95 "Hg5 mi
3:58 PM85 °FPassing clouds.22 mph66%29.95 "HgN/A
2:58 PM85 °FPassing clouds.21 mph65%29.97 "HgN/A
1:58 PM87 °FScattered clouds.21 mph66%29.98 "HgN/A
12:58 PM86 °FSunny.22 mph65%30.00 "HgN/A
11:58 AM86 °FSunny.21 mph64%30.02 "HgN/A
10:58 AM85 °FSunny.22 mph70%30.05 "HgN/A
Weather by CustomWeather, © 2014

See weather overviewHow to use our weather pages